M I D A S
Marine Information and Data Acquisition System
Tripno 2071 of the Zeeleeuw from 2011-04-04 06:47:19 to 2011-04-04 15:57:38
Back to CruiseResearch ActivitiesStationsMapUnderway DataData graphs

EquipmentUnitsComments
TimeDGPSUTC
LatitudeDGPSDM.mWGS84
LongitudeDGPSDM.mWGS84
SpeedMeteo Stationm/sRelative wind speed
DirectionMeteo StationdegRelative wind direction
TemperatureMeteo Stationdeg CelciusAir temperature
PressureMeteo StationPaAtmospheric pressure
HumidityMeteo Station%Relative humidity
Missing or incorrect values are displayed as -999
Metereological data collected by the RV Zeeleeuw from 2011-04-04 06:23:44 to 2011-04-04 16:08:32
                                                                                    Next 1000 lines
Time Latitude Longitude Speed Direction Temperature Pressure Humidity
2011-04-04 06:23:53 51°13.598 2°56.094 0.2 34 9.1 101990 48
2011-04-04 06:23:58 51°13.598 2°56.094 0.1 30 9.1 101990 47
2011-04-04 06:24:03 51°13.598 2°56.094 1.2 44 9.1 101990 47
2011-04-04 06:24:08 51°13.598 2°56.094 0.5 39 9.1 101990 47
2011-04-04 06:24:13 51°13.598 2°56.094 2 35 9.1 101990 47
2011-04-04 06:24:18 51°13.598 2°56.094 0.3 79 9.1 102000 47
2011-04-04 06:24:23 51°13.598 2°56.094 0.7 31 9.1 101990 46
2011-04-04 06:24:28 51°13.598 2°56.094 1.2 25 9.1 101990 46
2011-04-04 06:24:33 51°13.598 2°56.094 0.6 23 9.1 101990 45
2011-04-04 06:24:38 51°13.598 2°56.094 0.2 78 9.1 101990 45
2011-04-04 06:24:44 51°13.598 2°56.094 0.1 41 9.1 101990 45
2011-04-04 06:24:48 51°13.598 2°56.094 2.5 39 9.1 101990 49
2011-04-04 06:24:53 51°13.598 2°56.094 1.6 40 9.1 101990 49
2011-04-04 06:24:58 51°13.597 2°56.094 2.8 35 9.1 101990 47
2011-04-04 06:25:03 51°13.597 2°56.094 2.8 35 9.2 101990 49
2011-04-04 06:25:08 51°13.597 2°56.094 1.5 83 9.2 101990 49
2011-04-04 06:25:13 51°13.597 2°56.094 1.4 44 9.2 101990 45
2011-04-04 06:25:18 51°13.597 2°56.094 0.2 78 9.2 101990 45
2011-04-04 06:25:23 51°13.597 2°56.094 0.1 40 9.2 101990 45
2011-04-04 06:25:28 51°13.597 2°56.094 0.3 78 9.2 101990 46
2011-04-04 06:25:34 51°13.597 2°56.094 1.1 43 9.2 101990 46
2011-04-04 06:25:38 51°13.597 2°56.094 0.6 74 9.2 101990 47
2011-04-04 06:25:43 51°13.597 2°56.094 1.7 37 9.2 102000 47
2011-04-04 06:25:48 51°13.597 2°56.094 0.1 78 9.2 102000 47
2011-04-04 06:25:53 51°13.597 2°56.094 0.1 32 9.2 102000 47
2011-04-04 06:25:58 51°13.597 2°56.094 2.2 77 9.2 102000 46
2011-04-04 06:26:03 51°13.597 2°56.094 2.7 32 9.2 101990 47
2011-04-04 06:26:08 51°13.597 2°56.094 2.2 80 9.2 101990 47
2011-04-04 06:26:13 51°13.597 2°56.094 2.7 38 9.2 101990 46
2011-04-04 06:26:19 51°13.597 2°56.094 0.5 38 9.2 101990 46
2011-04-04 06:26:23 51°13.597 2°56.094 0.1 42 9.2 101990 45
2011-04-04 06:26:29 51°13.598 2°56.094 0.4 78 9.2 101990 45
2011-04-04 06:26:33 51°13.598 2°56.094 0.7 38 9.2 101990 45
2011-04-04 06:26:38 51°13.598 2°56.094 2.4 35 9.2 101990 45
2011-04-04 06:26:43 51°13.598 2°56.095 2.1 35 9.2 101990 45
2011-04-04 06:26:48 51°13.598 2°56.095 1.1 38 9.2 102000 47
2011-04-04 06:26:53 51°13.598 2°56.095 0.5 35 9.2 102000 47
2011-04-04 06:26:58 51°13.598 2°56.094 0.6 76 9.2 102000 47
2011-04-04 06:27:03 51°13.598 2°56.095 0.1 34 9.2 102000 47
2011-04-04 06:27:08 51°13.598 2°56.094 0.1 78 9.2 102000 47
2011-04-04 06:27:13 51°13.597 2°56.094 0.1 35 9.2 102000 46
2011-04-04 06:27:18 51°13.597 2°56.094 0.1 42 9.2 102000 46
2011-04-04 06:27:23 51°13.597 2°56.094 2.5 41 9.2 102000 46
2011-04-04 06:27:28 51°13.598 2°56.094 3.1 43 9.2 102000 47
2011-04-04 06:27:33 51°13.598 2°56.094 2.8 34 9.2 102000 47
2011-04-04 06:27:38 51°13.598 2°56.094 2.2 40 9.2 102000 47
2011-04-04 06:27:43 51°13.598 2°56.094 2.8 39 9.2 102000 47
2011-04-04 06:27:48 51°13.598 2°56.094 1.4 80 9.2 102000 45
2011-04-04 06:27:53 51°13.598 2°56.094 2.3 36 9.2 102000 45
2011-04-04 06:27:58 51°13.598 2°56.095 0.5 42 9.2 102000 49
2011-04-04 06:28:03 51°13.598 2°56.095 1.2 43 9.2 102000 47
2011-04-04 06:28:08 51°13.598 2°56.095 1.8 39 9.2 102000 47
2011-04-04 06:28:13 51°13.598 2°56.095 1.2 38 9.2 102000 46
2011-04-04 06:28:18 51°13.598 2°56.095 0.1 41 9.2 102000 46
2011-04-04 06:28:24 51°13.598 2°56.095 0.1 40 9.2 102000 46
2011-04-04 06:28:29 51°13.598 2°56.095 -999 38 9.2 102000 47
2011-04-04 06:28:34 51°13.598 2°56.095 0.6 33 9.2 102000 47
2011-04-04 06:28:39 51°13.599 2°56.095 0.1 39 9.2 102000 45
2011-04-04 06:28:43 51°13.599 2°56.095 0.1 36 9.2 102000 47
2011-04-04 06:28:48 51°13.599 2°56.095 0.1 34 9.2 102000 47
2011-04-04 06:28:53 51°13.599 2°56.095 0.2 44 9.2 102000 47
2011-04-04 06:28:58 51°13.599 2°56.095 0.8 35 9.2 102000 47
2011-04-04 06:29:03 51°13.599 2°56.096 0.2 44 9.2 102000 47
2011-04-04 06:29:09 51°13.599 2°56.095 0.1 36 9.2 102000 46
2011-04-04 06:29:13 51°13.599 2°56.095 2 39 9.2 102000 47
2011-04-04 06:29:18 51°13.599 2°56.096 1.1 26 9.2 102000 47
2011-04-04 06:29:23 51°13.599 2°56.096 1 40 9.2 102000 47
2011-04-04 06:29:28 51°13.599 2°56.096 1.4 76 9.2 102000 47
2011-04-04 06:29:33 51°13.599 2°56.095 2.3 33 9.2 102000 48
2011-04-04 06:29:38 51°13.599 2°56.095 2.8 82 9.2 102000 48
2011-04-04 06:29:43 51°13.599 2°56.095 2.5 36 9.2 102000 46
2011-04-04 06:29:49 51°13.599 2°56.095 1.8 44 9.2 102000 46
2011-04-04 06:29:53 51°13.599 2°56.095 1.2 39 9.2 102000 46
2011-04-04 06:29:58 51°13.599 2°56.095 1.5 36 9.2 102000 45
2011-04-04 06:30:03 51°13.599 2°56.095 1.7 39 9.2 102000 44
2011-04-04 06:30:08 51°13.599 2°56.095 1.9 44 9.2 102000 44
2011-04-04 06:30:13 51°13.599 2°56.095 0.4 37 9.2 102000 44
2011-04-04 06:30:18 51°13.599 2°56.095 0.1 79 9.2 102000 48
2011-04-04 06:30:23 51°13.599 2°56.094 2.6 36 9.2 102000 48
2011-04-04 06:30:28 51°13.599 2°56.095 2.2 78 9.2 102000 47
2011-04-04 06:30:33 51°13.599 2°56.095 0.9 33 9.2 102000 46
2011-04-04 06:30:38 51°13.599 2°56.095 1.3 26 9.2 102000 46
2011-04-04 06:30:43 51°13.599 2°56.095 0.3 45 9.3 102010 47
2011-04-04 06:30:48 51°13.599 2°56.095 0.1 78 9.3 102010 47
2011-04-04 06:30:53 51°13.599 2°56.095 0.1 35 9.3 102010 47
2011-04-04 06:30:58 51°13.599 2°56.095 0.4 43 9.3 102010 47
2011-04-04 06:31:03 51°13.599 2°56.095 0.2 34 9.3 102010 47
2011-04-04 06:31:09 51°13.599 2°56.095 0.1 78 9.3 102010 47
2011-04-04 06:31:13 51°13.599 2°56.095 0.1 32 9.3 102010 47
2011-04-04 06:31:18 51°13.599 2°56.095 0.9 73 9.3 102010 45
2011-04-04 06:31:23 51°13.599 2°56.095 0.3 43 9.3 102000 46
2011-04-04 06:31:28 51°13.599 2°56.095 0.6 28 9.3 102000 46
2011-04-04 06:31:33 51°13.599 2°56.095 0.1 43 9.3 102000 46
2011-04-04 06:31:38 51°13.599 2°56.096 0.1 78 9.3 102010 46
2011-04-04 06:31:43 51°13.599 2°56.096 -999 41 9.3 102010 46
2011-04-04 06:31:48 51°13.599 2°56.096 -999 78 9.3 102010 46
2011-04-04 06:31:53 51°13.599 2°56.096 -999 35 9.3 102010 46
2011-04-04 06:31:58 51°13.599 2°56.096 -999 78 9.3 102010 46
2011-04-04 06:32:04 51°13.599 2°56.096 -999 35 9.3 102010 47
2011-04-04 06:32:08 51°13.599 2°56.096 -999 78 9.3 102010 47
2011-04-04 06:32:13 51°13.599 2°56.096 -999 35 9.3 102010 47
2011-04-04 06:32:18 51°13.599 2°56.096 0.2 82 9.3 102010 47
2011-04-04 06:32:23 51°13.599 2°56.095 1.5 32 9.3 102010 47
2011-04-04 06:32:28 51°13.599 2°56.095 1.6 74 9.3 102010 47
2011-04-04 06:32:34 51°13.598 2°56.095 2.3 31 9.3 102010 47
2011-04-04 06:32:38 51°13.598 2°56.096 2.7 73 9.3 102010 47
2011-04-04 06:32:43 51°13.599 2°56.096 2 33 9.3 102010 47
2011-04-04 06:32:48 51°13.599 2°56.096 1.5 82 9.3 102010 48
2011-04-04 06:32:53 51°13.599 2°56.096 4.2 44 9.3 102010 48
2011-04-04 06:32:58 51°13.599 2°56.096 2.6 74 9.3 102010 47
2011-04-04 06:33:03 51°13.599 2°56.096 2.3 44 9.3 102010 47
2011-04-04 06:33:08 51°13.599 2°56.096 2.5 80 9.3 102010 44
2011-04-04 06:33:13 51°13.599 2°56.096 0.6 33 9.3 102010 45
2011-04-04 06:33:18 51°13.599 2°56.096 2.1 40 9.3 102010 45
2011-04-04 06:33:23 51°13.599 2°56.096 2.6 38 9.3 102010 48
2011-04-04 06:33:29 51°13.599 2°56.096 0.2 43 9.3 102010 48
2011-04-04 06:33:33 51°13.599 2°56.096 0.1 32 9.3 102010 48
2011-04-04 06:33:38 51°13.599 2°56.096 0.5 81 9.3 102010 47
2011-04-04 06:33:43 51°13.599 2°56.096 0.1 38 9.3 102010 47
2011-04-04 06:33:48 51°13.599 2°56.096 0.9 38 9.3 102010 46
2011-04-04 06:33:53 51°13.599 2°56.096 1.9 44 9.3 102010 46
2011-04-04 06:33:58 51°13.599 2°56.096 0.3 82 9.3 102010 47
2011-04-04 06:34:03 51°13.599 2°56.096 3.3 41 9.3 102010 47
2011-04-04 06:34:08 51°13.599 2°56.096 2 74 9.3 102010 45
2011-04-04 06:34:13 51°13.598 2°56.096 1.5 33 9.3 102010 46
2011-04-04 06:34:18 51°13.599 2°56.096 2.2 45 9.3 102010 46
2011-04-04 06:34:23 51°13.599 2°56.096 2.6 42 9.3 102010 47
2011-04-04 06:34:28 51°13.599 2°56.096 2.5 38 9.3 102010 47
2011-04-04 06:34:33 51°13.599 2°56.096 1.9 35 9.3 102010 45
2011-04-04 06:34:38 51°13.599 2°56.095 2.8 45 9.3 102010 45
2011-04-04 06:34:43 51°13.599 2°56.096 0.9 32 9.3 102010 45
2011-04-04 06:34:48 51°13.599 2°56.096 3.4 45 9.3 102010 48
2011-04-04 06:34:52 51°13.599 2°56.095 4.4 37 9.3 102010 46
2011-04-04 06:34:57 51°13.599 2°56.096 2.3 80 9.3 102010 46
2011-04-04 06:35:02 51°13.599 2°56.095 3.2 42 9.3 102010 48
2011-04-04 06:35:07 51°13.598 2°56.095 2.8 38 9.3 102010 48
2011-04-04 06:35:12 51°13.598 2°56.095 1.7 43 9.3 102010 48
2011-04-04 06:35:17 51°13.598 2°56.095 4.2 45 9.3 102010 45
2011-04-04 06:35:23 51°13.598 2°56.095 3.7 39 9.3 102010 45
2011-04-04 06:35:27 51°13.598 2°56.095 2.6 32 9.4 102020 45
2011-04-04 06:35:33 51°13.598 2°56.095 2.3 39 9.4 102020 45
2011-04-04 06:35:37 51°13.598 2°56.095 2.2 43 9.3 102020 48
2011-04-04 06:35:42 51°13.598 2°56.095 1.9 43 9.3 102020 48
2011-04-04 06:35:47 51°13.598 2°56.095 4.3 80 9.3 102010 48
2011-04-04 06:35:52 51°13.598 2°56.095 3.6 44 9.3 102010 48
2011-04-04 06:35:57 51°13.598 2°56.095 3.6 80 9.3 102020 48
2011-04-04 06:36:01 51°13.598 2°56.095 2.9 40 9.3 102020 48
2011-04-04 06:36:06 51°13.598 2°56.095 4.4 41 9.3 102010 45
2011-04-04 06:36:11 51°13.598 2°56.095 2.8 44 9.3 102020 48
2011-04-04 06:36:16 51°13.598 2°56.095 3.6 44 9.3 102020 48
2011-04-04 06:36:21 51°13.598 2°56.095 3.3 38 9.3 102020 48
2011-04-04 06:36:25 51°13.598 2°56.095 1.2 78 9.3 102020 46
2011-04-04 06:36:30 51°13.598 2°56.095 1.4 33 9.3 102020 47
2011-04-04 06:36:35 51°13.598 2°56.095 1.7 42 9.3 102020 47
2011-04-04 06:36:40 51°13.598 2°56.095 2.9 41 9.3 102020 47
2011-04-04 06:36:45 51°13.598 2°56.096 0.4 24 9.3 102020 48
2011-04-04 06:36:50 51°13.599 2°56.096 0.3 31 9.3 102020 48
2011-04-04 06:36:55 51°13.599 2°56.096 0.2 43 9.3 102020 47
2011-04-04 06:37:00 51°13.599 2°56.096 1.3 32 9.3 102020 47
2011-04-04 06:37:05 51°13.598 2°56.096 2.5 38 9.3 102020 47
2011-04-04 06:37:10 51°13.598 2°56.096 1.4 41 9.3 102020 47
2011-04-04 06:37:15 51°13.598 2°56.095 2.5 41 9.3 102020 47
2011-04-04 06:37:20 51°13.598 2°56.095 2.6 37 9.3 102020 45
2011-04-04 06:37:25 51°13.598 2°56.095 1.9 76 9.3 102020 45
2011-04-04 06:37:29 51°13.598 2°56.095 2.3 33 9.3 102020 45
2011-04-04 06:37:36 51°13.598 2°56.095 0.8 82 9.3 102020 46
2011-04-04 06:37:41 51°13.598 2°56.095 0.2 36 9.3 102020 46
2011-04-04 06:37:45 51°13.598 2°56.095 0.7 42 9.3 102020 48
2011-04-04 06:37:51 51°13.598 2°56.095 1 36 9.3 102020 48
2011-04-04 06:37:56 51°13.598 2°56.095 2.3 44 9.3 102020 47
2011-04-04 06:38:02 51°13.598 2°56.095 1.3 32 9.3 102020 47
2011-04-04 06:38:06 51°13.598 2°56.095 1.5 78 9.3 102020 44
2011-04-04 06:38:11 51°13.598 2°56.095 2.4 39 9.3 102020 44
2011-04-04 06:38:16 51°13.598 2°56.095 1.2 35 9.3 102020 47
2011-04-04 06:38:21 51°13.598 2°56.095 0.2 29 9.3 102020 47
2011-04-04 06:38:26 51°13.598 2°56.095 1.1 39 9.3 102020 46
2011-04-04 06:38:31 51°13.598 2°56.095 0.2 40 9.3 102020 48
2011-04-04 06:38:36 51°13.599 2°56.095 0.2 27 9.3 102020 48
2011-04-04 06:38:42 51°13.599 2°56.095 0.1 35 9.3 102020 48
2011-04-04 06:38:46 51°13.599 2°56.095 0.1 82 9.3 102020 46
2011-04-04 06:38:51 51°13.598 2°56.095 0.3 31 9.3 102020 46
2011-04-04 06:38:56 51°13.598 2°56.095 1.6 78 9.3 102020 46
2011-04-04 06:39:01 51°13.598 2°56.095 2.9 40 9.3 102020 46
2011-04-04 06:39:06 51°13.598 2°56.095 1.6 74 9.3 102020 46
2011-04-04 06:39:11 51°13.598 2°56.094 0.2 42 9.3 102020 45
2011-04-04 06:39:15 51°13.598 2°56.094 0.3 35 9.3 102020 45
2011-04-04 06:39:20 51°13.598 2°56.094 0.2 27 9.3 102020 45
2011-04-04 06:39:26 51°13.598 2°56.095 0.1 78 9.3 102020 47
2011-04-04 06:39:31 51°13.598 2°56.095 0.1 40 9.3 102020 47
2011-04-04 06:39:36 51°13.598 2°56.095 -999 78 9.3 102020 46
2011-04-04 06:39:40 51°13.598 2°56.095 0.6 43 9.3 102020 46
2011-04-04 06:39:45 51°13.598 2°56.095 1.6 43 9.3 102020 46
2011-04-04 06:39:50 51°13.598 2°56.095 3.4 41 9.3 102020 46
2011-04-04 06:39:56 51°13.598 2°56.094 5.1 40 9.3 102020 46
2011-04-04 06:40:01 51°13.598 2°56.094 3.6 42 9.3 102020 45
2011-04-04 06:40:06 51°13.598 2°56.094 2.4 44 9.3 102020 45
2011-04-04 06:40:11 51°13.598 2°56.094 3.8 45 9.3 102020 45
2011-04-04 06:40:15 51°13.597 2°56.094 2.9 41 9.3 102020 47
2011-04-04 06:40:22 51°13.597 2°56.093 4.9 37 9.3 102020 47
2011-04-04 06:40:26 51°13.597 2°56.093 6 37 9.3 102020 45
2011-04-04 06:40:31 51°13.597 2°56.094 4.5 36 9.3 102020 45
2011-04-04 06:40:36 51°13.597 2°56.094 3.3 36 9.3 102020 45
2011-04-04 06:40:41 51°13.597 2°56.094 3.4 44 9.3 102020 45
2011-04-04 06:40:46 51°13.597 2°56.094 4 42 9.3 102030 46
2011-04-04 06:40:50 51°13.598 2°56.094 5 44 9.3 102030 46
2011-04-04 06:40:55 51°13.597 2°56.094 4.6 37 9.3 102020 45
2011-04-04 06:41:00 51°13.597 2°56.094 4.3 37 9.3 102020 45
2011-04-04 06:41:06 51°13.597 2°56.094 1.3 76 9.3 102020 45
2011-04-04 06:41:11 51°13.597 2°56.094 2.4 39 9.3 102020 46
2011-04-04 06:41:15 51°13.597 2°56.094 2.6 78 9.3 102020 46
2011-04-04 06:41:20 51°13.598 2°56.095 4 32 9.3 102020 46
2011-04-04 06:41:26 51°13.598 2°56.095 1.9 81 9.2 102030 45
2011-04-04 06:41:31 51°13.598 2°56.095 1.9 31 9.2 102020 47
2011-04-04 06:41:35 51°13.598 2°56.095 2.6 34 9.2 102020 47
2011-04-04 06:41:40 51°13.598 2°56.095 1 26 9.2 102020 47
2011-04-04 06:41:46 51°13.597 2°56.094 2.3 39 9.2 102020 46
2011-04-04 06:41:51 51°13.597 2°56.094 0.7 34 9.2 102020 46
2011-04-04 06:41:56 51°13.597 2°56.095 0.4 81 9.2 102020 47
2011-04-04 06:42:01 51°13.597 2°56.095 0.2 33 9.2 102020 47
2011-04-04 06:42:06 51°13.597 2°56.095 0.5 40 9.2 102020 44
2011-04-04 06:42:11 51°13.597 2°56.095 0.1 41 9.2 102020 44
2011-04-04 06:42:15 51°13.597 2°56.095 2.2 76 9.2 102020 48
2011-04-04 06:42:20 51°13.597 2°56.095 1.8 44 9.2 102020 48
2011-04-04 06:42:25 51°13.597 2°56.095 1.6 75 9.2 102020 45
2011-04-04 06:42:31 51°13.597 2°56.095 1 37 9.2 102020 45
2011-04-04 06:42:36 51°13.597 2°56.095 0.3 42 9.2 102020 45
2011-04-04 06:42:41 51°13.597 2°56.095 1.7 38 9.2 102020 45
2011-04-04 06:42:46 51°13.597 2°56.095 0.3 42 9.2 102020 47
2011-04-04 06:42:51 51°13.597 2°56.095 0.1 43 9.2 102020 47
2011-04-04 06:42:56 51°13.597 2°56.095 0.1 78 9.3 102020 45
2011-04-04 06:43:01 51°13.597 2°56.095 -999 35 9.3 102020 45
2011-04-04 06:43:07 51°13.597 2°56.095 -999 78 9.2 102020 46
2011-04-04 06:43:13 51°13.597 2°56.095 -999 35 9.3 102020 46
2011-04-04 06:43:16 51°13.597 2°56.095 -999 78 9.3 102020 46
2011-04-04 06:43:22 51°13.597 2°56.094 -999 35 9.3 102020 46
2011-04-04 06:43:27 51°13.597 2°56.094 -999 82 9.2 102030 46
2011-04-04 06:43:32 51°13.597 2°56.094 2 45 9.2 102020 46
2011-04-04 06:43:37 51°13.597 2°56.094 3.5 39 9.2 102020 46
2011-04-04 06:43:41 51°13.597 2°56.094 4.6 31 9.2 102020 46
2011-04-04 06:43:46 51°13.597 2°56.094 3.8 74 9.2 102030 46
2011-04-04 06:43:51 51°13.597 2°56.094 2.3 32 9.2 102030 46
2011-04-04 06:43:57 51°13.597 2°56.094 3 80 9.2 102020 44
2011-04-04 06:44:02 51°13.597 2°56.094 1.2 39 9.2 102020 48
2011-04-04 06:44:07 51°13.598 2°56.094 2.9 75 9.2 102020 48
2011-04-04 06:44:12 51°13.598 2°56.094 3.1 33 9.2 102020 48
2011-04-04 06:44:17 51°13.598 2°56.094 2.6 76 9.2 102030 47
2011-04-04 06:44:22 51°13.597 2°56.094 1.6 45 9.2 102020 46
2011-04-04 06:44:26 51°13.597 2°56.094 2.8 43 9.2 102020 46
2011-04-04 06:44:31 51°13.597 2°56.094 2.1 38 9.2 102020 46
2011-04-04 06:44:36 51°13.598 2°56.094 2 40 9.2 102030 43
2011-04-04 06:44:41 51°13.598 2°56.094 0.4 26 9.2 102030 44
2011-04-04 06:44:46 51°13.598 2°56.094 0.6 41 9.2 102030 44
2011-04-04 06:44:50 51°13.598 2°56.094 1.7 34 9.2 102030 44
2011-04-04 06:44:55 51°13.598 2°56.094 0.2 41 9.2 102020 45
2011-04-04 06:45:00 51°13.598 2°56.094 0.1 40 9.2 102030 47
2011-04-04 06:45:06 51°13.598 2°56.094 1.1 42 9.2 102030 47
2011-04-04 06:45:10 51°13.598 2°56.094 0.5 42 9.2 102030 46
2011-04-04 06:45:15 51°13.598 2°56.094 0.1 43 9.2 102030 46
2011-04-04 06:45:20 51°13.598 2°56.094 0.1 43 9.2 102030 46
2011-04-04 06:45:25 51°13.598 2°56.094 0.2 42 9.2 102030 47
2011-04-04 06:45:31 51°13.598 2°56.095 0.2 37 9.2 102030 47
2011-04-04 06:45:35 51°13.598 2°56.095 0.1 35 9.2 102030 46
2011-04-04 06:45:41 51°13.598 2°56.095 0.1 36 9.2 102030 46
2011-04-04 06:45:45 51°13.598 2°56.095 -999 34 9.2 102030 46
2011-04-04 06:45:51 51°13.598 2°56.095 -999 37 9.2 102030 46
2011-04-04 06:45:56 51°13.598 2°56.095 2 31 9.2 102030 46
2011-04-04 06:46:00 51°13.598 2°56.095 3.1 36 9.2 102030 46
2011-04-04 06:46:05 51°13.598 2°56.095 3.9 37 9.2 102030 49
2011-04-04 06:46:10 51°13.598 2°56.095 3.5 28 9.2 102030 49
2011-04-04 06:46:15 51°13.598 2°56.095 1.8 43 9.2 102030 46
2011-04-04 06:46:20 51°13.597 2°56.094 1.2 32 9.2 102030 45
2011-04-04 06:46:24 51°13.597 2°56.094 0.1 45 9.2 102030 45
2011-04-04 06:46:29 51°13.597 2°56.094 0.1 42 9.2 102030 45
2011-04-04 06:46:35 51°13.597 2°56.095 0.3 45 9.2 102030 45
2011-04-04 06:46:41 51°13.597 2°56.095 0.1 33 9.2 102030 45
2011-04-04 06:46:45 51°13.597 2°56.095 0.1 78 9.2 102030 46
2011-04-04 06:46:51 51°13.597 2°56.095 0.8 35 9.2 102030 46
2011-04-04 06:46:57 51°13.597 2°56.095 0.1 78 9.2 102030 44
2011-04-04 06:47:02 51°13.597 2°56.095 0.1 39 9.2 102030 44
2011-04-04 06:47:07 51°13.598 2°56.096 -999 78 9.2 102030 46
2011-04-04 06:47:13 51°13.598 2°56.096 -999 35 9.2 102030 46
2011-04-04 06:47:17 51°13.598 2°56.096 -999 78 9.2 102030 45
2011-04-04 06:47:23 51°13.597 2°56.096 -999 35 9.2 102030 45
2011-04-04 06:47:28 51°13.597 2°56.096 -999 78 9.2 102030 46
2011-04-04 06:47:34 51°13.597 2°56.095 -999 42 9.2 102030 46
2011-04-04 06:47:38 51°13.597 2°56.094 -999 78 9.2 102030 46
2011-04-04 06:47:43 51°13.597 2°56.093 -999 44 9.2 102030 46
2011-04-04 06:47:47 51°13.597 2°56.092 -999 42 9.2 102030 46
2011-04-04 06:47:52 51°13.598 2°56.091 -999 24 9.2 102030 46
2011-04-04 06:47:58 51°13.599 2°56.088 -999 78 9.2 102030 46
2011-04-04 06:48:02 51°13.599 2°56.085 -999 23 9.2 102030 46
2011-04-04 06:48:07 51°13.6 2°56.081 -999 78 9.2 102030 46
2011-04-04 06:48:12 51°13.601 2°56.076 0.1 21 9.2 102030 46
2011-04-04 06:48:18 51°13.603 2°56.069 0.1 42 9.2 102030 46
2011-04-04 06:48:23 51°13.605 2°56.063 0.1 21 9.3 102030 46
2011-04-04 06:48:28 51°13.607 2°56.057 1.8 43 9.3 102030 46
2011-04-04 06:48:33 51°13.609 2°56.05 1.7 26 9.2 102030 46
2011-04-04 06:48:38 51°13.611 2°56.044 1.8 42 9.2 102030 46
2011-04-04 06:48:43 51°13.613 2°56.037 6.4 22 9.2 102040 45
2011-04-04 06:48:48 51°13.616 2°56.03 5.1 76 9.2 102040 45
2011-04-04 06:48:53 51°13.618 2°56.022 4.3 39 9.3 102030 46
2011-04-04 06:48:58 51°13.62 2°56.015 4.2 82 9.3 102030 46
2011-04-04 06:49:03 51°13.623 2°56.007 3.1 24 9.2 102030 48
2011-04-04 06:49:08 51°13.625 2°55.999 4.1 75 9.2 102030 48
2011-04-04 06:49:13 51°13.628 2°55.991 4.3 22 9.3 102030 47
2011-04-04 06:49:18 51°13.631 2°55.982 4 76 9.3 102030 47
2011-04-04 06:49:23 51°13.634 2°55.974 5.4 26 9.3 102030 47
2011-04-04 06:49:28 51°13.637 2°55.965 4.6 80 9.3 102030 47
2011-04-04 06:49:34 51°13.641 2°55.954 4.1 20 9.3 102040 47
2011-04-04 06:49:38 51°13.643 2°55.946 3.7 80 9.3 102040 47
2011-04-04 06:49:42 51°13.646 2°55.939 4.2 27 9.3 102040 48
2011-04-04 06:49:48 51°13.649 2°55.928 5.3 78 9.3 102040 48
2011-04-04 06:49:53 51°13.653 2°55.918 4.3 21 9.3 102040 44
2011-04-04 06:49:58 51°13.656 2°55.908 4.7 77 9.3 102040 44
2011-04-04 06:50:03 51°13.659 2°55.899 4.9 22 9.3 102040 45
2011-04-04 06:50:08 51°13.661 2°55.889 3.9 76 9.3 102040 45
2011-04-04 06:50:13 51°13.665 2°55.88 4.2 21 9.3 102040 48
2011-04-04 06:50:18 51°13.667 2°55.87 4.3 77 9.3 102040 48
2011-04-04 06:50:23 51°13.67 2°55.86 4.1 20 9.3 102040 48
2011-04-04 06:50:28 51°13.673 2°55.85 4.6 77 9.3 102040 48
2011-04-04 06:50:32 51°13.675 2°55.842 5 28 9.3 102040 48
2011-04-04 06:50:38 51°13.677 2°55.83 3.8 79 9.3 102040 48
2011-04-04 06:50:43 51°13.679 2°55.82 3.1 25 9.3 102040 48
2011-04-04 06:50:48 51°13.681 2°55.809 2.3 76 9.3 102040 48
2011-04-04 06:50:53 51°13.683 2°55.799 4.3 19 9.3 102040 48
2011-04-04 06:50:58 51°13.685 2°55.789 4.1 80 9.3 102040 48
2011-04-04 06:51:03 51°13.686 2°55.78 7.5 22 9.3 102040 46
2011-04-04 06:51:08 51°13.688 2°55.772 7.5 79 9.3 102040 46
2011-04-04 06:51:13 51°13.689 2°55.765 6.1 23 9.4 102040 47
2011-04-04 06:51:18 51°13.691 2°55.758 7 78 9.4 102040 47
2011-04-04 06:51:23 51°13.692 2°55.753 4.8 25 9.4 102030 46
2011-04-04 06:51:28 51°13.693 2°55.748 5.6 74 9.4 102030 46
2011-04-04 06:51:33 51°13.694 2°55.744 3.3 32 9.4 102040 47
2011-04-04 06:51:38 51°13.694 2°55.741 5.1 77 9.4 102040 47
2011-04-04 06:51:42 51°13.695 2°55.74 3.9 25 9.4 102030 48
2011-04-04 06:51:48 51°13.695 2°55.739 2.8 81 9.4 102030 48
2011-04-04 06:51:52 51°13.696 2°55.738 1.6 21 9.4 102040 46
2011-04-04 06:51:58 51°13.697 2°55.739 3.4 81 9.4 102040 46
2011-04-04 06:52:02 51°13.698 2°55.74 0.3 28 9.4 102040 46
2011-04-04 06:52:07 51°13.699 2°55.742 0.3 78 9.4 102040 46
2011-04-04 06:52:12 51°13.7 2°55.744 3 29 9.4 102030 46
2011-04-04 06:52:17 51°13.701 2°55.747 3 80 9.4 102030 46
2011-04-04 06:52:22 51°13.703 2°55.749 3.8 28 9.4 102040 46
2011-04-04 06:52:27 51°13.706 2°55.752 2.8 287 9.4 102040 46
2011-04-04 06:52:32 51°13.708 2°55.755 1.9 270 9.4 102040 48
2011-04-04 06:52:37 51°13.711 2°55.757 0.9 279 9.4 102040 48
2011-04-04 06:52:42 51°13.713 2°55.758 1 262 9.4 102040 47
2011-04-04 06:52:46 51°13.714 2°55.759 0.2 287 9.4 102040 47
2011-04-04 06:52:51 51°13.715 2°55.759 0.2 270 9.4 102040 46
2011-04-04 06:52:57 51°13.715 2°55.76 0.2 287 9.4 102040 46
2011-04-04 06:53:02 51°13.715 2°55.76 0.4 259 9.4 102030 47
2011-04-04 06:53:07 51°13.714 2°55.76 0.3 282 9.4 102030 47
2011-04-04 06:53:12 51°13.712 2°55.759 0.2 30 9.5 102030 46
2011-04-04 06:53:17 51°13.71 2°55.759 1.2 83 9.5 102030 46
2011-04-04 06:53:22 51°13.707 2°55.758 4.4 23 9.5 102040 46
2011-04-04 06:53:27 51°13.705 2°55.758 2 81 9.5 102040 46
2011-04-04 06:53:33 51°13.704 2°55.76 1.1 22 9.5 102040 44
2011-04-04 06:53:38 51°13.703 2°55.759 3.4 283 9.5 102040 44
2011-04-04 06:53:43 51°13.703 2°55.759 0.5 259 9.4 102040 48
2011-04-04 06:53:48 51°13.704 2°55.759 2.7 283 9.4 102040 48
2011-04-04 06:53:53 51°13.706 2°55.758 0.8 264 9.5 102040 45
2011-04-04 06:53:57 51°13.707 2°55.758 2 279 9.5 102040 45
2011-04-04 06:54:02 51°13.71 2°55.756 4.9 22 9.4 102050 46
2011-04-04 06:54:07 51°13.714 2°55.753 4.1 280 9.4 102050 46
2011-04-04 06:54:13 51°13.719 2°55.748 3.9 26 9.5 102040 46
2011-04-04 06:54:18 51°13.724 2°55.744 5.2 283 9.5 102040 46
2011-04-04 06:54:22 51°13.728 2°55.739 3.6 22 9.4 102030 45
2011-04-04 06:54:27 51°13.734 2°55.733 4.2 279 9.4 102030 45
2011-04-04 06:54:32 51°13.74 2°55.726 5.1 25 9.4 102040 45
2011-04-04 06:54:38 51°13.749 2°55.717 5.1 279 9.4 102040 45
2011-04-04 06:54:43 51°13.756 2°55.708 5.2 317 9.5 102040 45
2011-04-04 06:54:48 51°13.764 2°55.7 3.9 278 9.5 102040 45
2011-04-04 06:54:52 51°13.77 2°55.694 5.2 318 9.4 102040 47
2011-04-04 06:54:57 51°13.778 2°55.685 5.3 281 9.4 102040 47
2011-04-04 06:55:02 51°13.787 2°55.677 5.6 22 9.5 102040 45
2011-04-04 06:55:07 51°13.796 2°55.668 3.9 283 9.5 102040 45
2011-04-04 06:55:12 51°13.805 2°55.659 1.2 326 9.4 102040 44
2011-04-04 06:55:17 51°13.814 2°55.65 0.3 286 9.4 102040 44
2011-04-04 06:55:22 51°13.824 2°55.642 5.2 24 9.5 102040 45
2011-04-04 06:55:27 51°13.834 2°55.633 4.2 285 9.5 102040 45
2011-04-04 06:55:32 51°13.844 2°55.625 0.1 318 9.4 102040 46
2011-04-04 06:55:36 51°13.852 2°55.619 2.2 283 9.4 102040 46
2011-04-04 06:55:41 51°13.862 2°55.61 6.9 24 9.5 102040 45
2011-04-04 06:55:47 51°13.875 2°55.601 5.2 281 9.5 102040 45
2011-04-04 06:55:52 51°13.885 2°55.593 4.6 26 9.5 102030 46
2011-04-04 06:55:56 51°13.893 2°55.586 5.1 284 9.5 102030 46
2011-04-04 06:56:01 51°13.904 2°55.578 5.5 233 9.5 102030 45
2011-04-04 06:56:06 51°13.915 2°55.571 4.5 281 9.5 102030 45
2011-04-04 06:56:11 51°13.925 2°55.562 6.5 319 9.5 102040 46
2011-04-04 06:56:16 51°13.936 2°55.555 7.9 281 9.5 102040 46
2011-04-04 06:56:20 51°13.945 2°55.549 4.6 21 9.5 102030 45
2011-04-04 06:56:25 51°13.956 2°55.541 5.9 283 9.5 102030 45
2011-04-04 06:56:30 51°13.966 2°55.533 4.8 19 9.5 102030 47
2011-04-04 06:56:35 51°13.977 2°55.525 5.2 278 9.5 102030 47
2011-04-04 06:56:40 51°13.988 2°55.517 4.5 24 9.5 102030 45
2011-04-04 06:56:44 51°13.997 2°55.512 5 284 9.5 102030 45
2011-04-04 06:56:49 51°14.008 2°55.504 4.7 321 9.5 102030 45
2011-04-04 06:56:54 51°14.019 2°55.497 5.1 284 9.5 102030 45
2011-04-04 06:56:59 51°14.03 2°55.49 4.6 22 9.4 102040 45
2011-04-04 06:57:04 51°14.04 2°55.482 4.6 284 9.4 102040 45
2011-04-04 06:57:09 51°14.052 2°55.474 5.4 320 9.5 102040 45
2011-04-04 06:57:15 51°14.065 2°55.464 3.8 279 9.5 102040 45
2011-04-04 06:57:20 51°14.076 2°55.456 3.9 315 9.5 102030 47
2011-04-04 06:57:25 51°14.088 2°55.448 1 282 9.5 102030 47
2011-04-04 06:57:30 51°14.1 2°55.44 2.4 321 9.5 102030 46
2011-04-04 06:57:36 51°14.114 2°55.429 6.7 283 9.5 102030 46
2011-04-04 06:57:41 51°14.125 2°55.42 7.6 318 9.4 102030 48
2011-04-04 06:57:47 51°14.139 2°55.409 7.9 280 9.4 102030 48
2011-04-04 06:57:52 51°14.151 2°55.4 6.2 20 9.4 102040 45
2011-04-04 06:57:57 51°14.163 2°55.39 6.6 284 9.4 102040 45
2011-04-04 06:58:02 51°14.175 2°55.38 6.4 22 9.4 102030 47
2011-04-04 06:58:07 51°14.186 2°55.369 5.7 285 9.4 102030 47
2011-04-04 06:58:12 51°14.198 2°55.358 6.8 317 9.4 102030 45
2011-04-04 06:58:17 51°14.209 2°55.346 8.9 281 9.4 102030 45
2011-04-04 06:58:22 51°14.221 2°55.335 8.9 34 9.4 102030 47
2011-04-04 06:58:27 51°14.233 2°55.323 8.9 286 9.4 102030 47
2011-04-04 06:58:32 51°14.244 2°55.311 6.2 18 9.4 102030 45
2011-04-04 06:58:37 51°14.256 2°55.299 6.4 280 9.4 102030 45
2011-04-04 06:58:42 51°14.268 2°55.287 8.4 26 9.4 102030 47
2011-04-04 06:58:48 51°14.282 2°55.272 8.8 286 9.4 102030 47
2011-04-04 06:58:52 51°14.292 2°55.262 8.7 25 9.4 102030 45
2011-04-04 06:58:58 51°14.306 2°55.247 6.8 286 9.4 102030 45
2011-04-04 06:59:03 51°14.319 2°55.235 8 25 9.4 102030 47
2011-04-04 06:59:08 51°14.331 2°55.222 8.8 277 9.4 102030 47
2011-04-04 06:59:12 51°14.341 2°55.212 10.2 22 9.4 102020 47
2011-04-04 06:59:17 51°14.354 2°55.2 10.5 281 9.4 102020 47
2011-04-04 06:59:22 51°14.367 2°55.187 10.5 25 9.4 102020 47
2011-04-04 06:59:27 51°14.379 2°55.173 10 278 9.4 102020 47
2011-04-04 06:59:32 51°14.392 2°55.16 10 23 9.4 102010 45
2011-04-04 06:59:36 51°14.403 2°55.15 10.2 283 9.4 102010 45
2011-04-04 06:59:41 51°14.416 2°55.137 10.1 22 9.4 102010 45
2011-04-04 06:59:46 51°14.43 2°55.124 9.6 285 9.4 102010 45
2011-04-04 06:59:51 51°14.443 2°55.11 9.9 23 9.4 102010 47
2011-04-04 06:59:56 51°14.455 2°55.096 10.3 283 9.4 102010 47
2011-04-04 07:00:00 51°14.466 2°55.085 10.7 22 9.4 102020 45
2011-04-04 07:00:05 51°14.479 2°55.071 10.2 278 9.4 102020 45
2011-04-04 07:00:10 51°14.493 2°55.057 10.8 25 9.4 102010 47
2011-04-04 07:00:15 51°14.506 2°55.044 11.6 282 9.4 102010 47
2011-04-04 07:00:20 51°14.519 2°55.029 10.9 22 9.4 102010 46
2011-04-04 07:00:24 51°14.53 2°55.017 12.4 285 9.4 102010 46
2011-04-04 07:00:29 51°14.542 2°55.001 10.7 25 9.4 102010 44
2011-04-04 07:00:34 51°14.555 2°54.984 10 278 9.4 102010 44
2011-04-04 07:00:39 51°14.568 2°54.967 11 22 9.3 102020 46
2011-04-04 07:00:44 51°14.58 2°54.949 9.7 287 9.3 102020 46
2011-04-04 07:00:49 51°14.593 2°54.932 10.7 19 9.3 102010 47
2011-04-04 07:00:54 51°14.606 2°54.915 9.5 283 9.3 102010 47
2011-04-04 07:00:59 51°14.619 2°54.899 10.2 22 9.3 102010 46
2011-04-04 07:01:04 51°14.632 2°54.883 10.9 281 9.3 102010 46
2011-04-04 07:01:09 51°14.645 2°54.866 10.5 27 9.3 102010 46
2011-04-04 07:01:14 51°14.659 2°54.85 10.4 283 9.3 102010 46
2011-04-04 07:01:19 51°14.672 2°54.833 11.3 25 9.4 102020 47
2011-04-04 07:01:24 51°14.685 2°54.816 11 280 9.4 102020 47
2011-04-04 07:01:29 51°14.699 2°54.799 10.8 32 9.4 102020 47
2011-04-04 07:01:34 51°14.713 2°54.783 10.3 278 9.4 102020 47
2011-04-04 07:01:39 51°14.727 2°54.766 12.5 24 9.3 102000 46
2011-04-04 07:01:44 51°14.741 2°54.75 11.5 284 9.3 102000 46
2011-04-04 07:01:49 51°14.755 2°54.733 10.8 36 9.4 102000 45
2011-04-04 07:01:54 51°14.769 2°54.717 10.7 278 9.4 102000 45
2011-04-04 07:01:59 51°14.783 2°54.7 10.7 26 9.3 102000 47
2011-04-04 07:02:04 51°14.798 2°54.684 10.7 282 9.3 102000 47
2011-04-04 07:02:09 51°14.812 2°54.668 9.8 26 9.3 102000 46
2011-04-04 07:02:14 51°14.826 2°54.651 10 283 9.3 102000 46
2011-04-04 07:02:19 51°14.841 2°54.634 9.4 21 9.3 102000 47
2011-04-04 07:02:24 51°14.855 2°54.617 10.7 284 9.3 102000 47
2011-04-04 07:02:29 51°14.87 2°54.601 10.5 19 9.3 102000 47
2011-04-04 07:02:34 51°14.885 2°54.584 12.3 287 9.3 102000 47
2011-04-04 07:02:39 51°14.899 2°54.568 9.1 37 9.3 102000 45
2011-04-04 07:02:44 51°14.914 2°54.551 10.5 282 9.3 102000 45
2011-04-04 07:02:49 51°14.928 2°54.535 11.5 27 9.3 102010 46
2011-04-04 07:02:54 51°14.943 2°54.518 11.6 277 9.3 102010 46
2011-04-04 07:02:59 51°14.957 2°54.502 11.3 26 9.3 102000 47
2011-04-04 07:03:04 51°14.971 2°54.485 10.7 284 9.3 102000 47
2011-04-04 07:03:09 51°14.985 2°54.469 10.3 23 9.3 102000 45
2011-04-04 07:03:14 51°15 2°54.452 10.4 281 9.3 102000 45
2011-04-04 07:03:19 51°15.014 2°54.436 10.8 26 9.3 102000 47
2011-04-04 07:03:24 51°15.029 2°54.42 11 279 9.3 102000 47
2011-04-04 07:03:29 51°15.043 2°54.403 11.7 22 9.2 102000 45
2011-04-04 07:03:34 51°15.057 2°54.387 9.8 284 9.2 102000 45
2011-04-04 07:03:39 51°15.072 2°54.371 11.2 19 9.2 102000 46
2011-04-04 07:03:44 51°15.086 2°54.354 12.2 282 9.2 102000 46
2011-04-04 07:03:49 51°15.1 2°54.337 11.5 231 9.2 102000 46
2011-04-04 07:03:54 51°15.114 2°54.32 9.9 281 9.2 102000 46
2011-04-04 07:03:59 51°15.128 2°54.303 10.5 24 9.2 102000 47
2011-04-04 07:04:04 51°15.142 2°54.286 10.8 281 9.2 102000 47
2011-04-04 07:04:09 51°15.156 2°54.269 11.1 20 9.2 102010 46
2011-04-04 07:04:14 51°15.171 2°54.252 10.8 286 9.2 102010 46
2011-04-04 07:04:19 51°15.185 2°54.235 10.6 22 9.2 102000 45
2011-04-04 07:04:24 51°15.199 2°54.219 10.9 279 9.2 102000 45
2011-04-04 07:04:29 51°15.214 2°54.203 9.9 28 9.2 102000 47
2011-04-04 07:04:34 51°15.228 2°54.185 10.8 282 9.2 102000 47
2011-04-04 07:04:39 51°15.242 2°54.168 12.5 27 9.2 102010 47
2011-04-04 07:04:44 51°15.256 2°54.151 10.5 281 9.2 102010 47
2011-04-04 07:04:49 51°15.269 2°54.132 11.2 24 9.2 102000 47
2011-04-04 07:04:54 51°15.283 2°54.114 10.9 278 9.2 102000 47
2011-04-04 07:04:59 51°15.297 2°54.096 11.5 33 9.2 102010 46
2011-04-04 07:05:04 51°15.31 2°54.078 11.5 282 9.2 102010 46
2011-04-04 07:05:09 51°15.324 2°54.061 10 21 9.2 102000 46
2011-04-04 07:05:14 51°15.338 2°54.043 11.7 286 9.2 102000 46
2011-04-04 07:05:19 51°15.352 2°54.026 13 20 9.2 102000 45
2011-04-04 07:05:24 51°15.366 2°54.008 10.7 282 9.2 102000 45
2011-04-04 07:05:29 51°15.38 2°53.991 10.2 19 9.2 102000 46
2011-04-04 07:05:34 51°15.395 2°53.973 10.5 285 9.2 102000 46
2011-04-04 07:05:39 51°15.409 2°53.956 12.4 22 9.2 102000 46
2011-04-04 07:05:44 51°15.423 2°53.939 12.4 286 9.2 102000 46
2011-04-04 07:05:49 51°15.437 2°53.922 11.4 26 9.2 102000 44
2011-04-04 07:05:54 51°15.451 2°53.904 11 286 9.2 102000 44
2011-04-04 07:05:59 51°15.465 2°53.886 12.8 22 9.2 102010 47
2011-04-04 07:06:04 51°15.479 2°53.868 10.8 281 9.2 102010 47
2011-04-04 07:06:09 51°15.493 2°53.851 12 35 9.2 102010 47
2011-04-04 07:06:14 51°15.507 2°53.833 11.6 278 9.2 102010 47
2011-04-04 07:06:19 51°15.522 2°53.815 12.2 21 9.2 102000 45
2011-04-04 07:06:24 51°15.536 2°53.798 11.8 281 9.2 102000 45
2011-04-04 07:06:29 51°15.55 2°53.781 11.9 23 9.2 102000 46
2011-04-04 07:06:34 51°15.565 2°53.765 12.4 281 9.2 102000 46
2011-04-04 07:06:39 51°15.579 2°53.748 10.6 21 9.2 102000 45
2011-04-04 07:06:44 51°15.594 2°53.731 11.9 284 9.2 102000 45
2011-04-04 07:06:49 51°15.608 2°53.715 13.2 21 9.2 102010 46
2011-04-04 07:06:54 51°15.623 2°53.698 10.3 284 9.2 102010 46
2011-04-04 07:06:59 51°15.637 2°53.682 11.2 26 9.1 102010 45
2011-04-04 07:07:04 51°15.651 2°53.665 11.2 283 9.1 102010 45
2011-04-04 07:07:09 51°15.666 2°53.648 11.6 24 9.1 102000 47
2011-04-04 07:07:14 51°15.68 2°53.631 11.4 283 9.1 102000 47
2011-04-04 07:07:19 51°15.694 2°53.615 11.5 26 9.1 102000 46
2011-04-04 07:07:24 51°15.709 2°53.598 11.5 285 9.1 102000 46
2011-04-04 07:07:29 51°15.724 2°53.583 11.2 21 9.1 102000 45
2011-04-04 07:07:34 51°15.739 2°53.569 11.4 285 9.1 102000 45
2011-04-04 07:07:39 51°15.754 2°53.554 10.1 22 9.1 102000 47
2011-04-04 07:07:44 51°15.77 2°53.541 9.7 283 9.1 102000 47
2011-04-04 07:07:49 51°15.785 2°53.527 11.8 27 9.1 102010 45
2011-04-04 07:07:54 51°15.801 2°53.514 12.2 281 9.1 102010 45
2011-04-04 07:07:59 51°15.816 2°53.501 12.6 20 9.1 102010 44
2011-04-04 07:08:04 51°15.832 2°53.488 10.6 286 9.1 102010 44
2011-04-04 07:08:09 51°15.847 2°53.475 11.5 24 9.1 102010 47
2011-04-04 07:08:14 51°15.863 2°53.462 10 286 9.1 102010 47
2011-04-04 07:08:19 51°15.878 2°53.448 10.6 26 9.1 102010 46
2011-04-04 07:08:24 51°15.894 2°53.435 9.8 280 9.1 102010 46
2011-04-04 07:08:29 51°15.909 2°53.421 12.4 25 9.1 102010 44
2011-04-04 07:08:34 51°15.924 2°53.408 10.9 281 9.1 102010 44
2011-04-04 07:08:39 51°15.94 2°53.394 12.2 25 9.1 102010 45
2011-04-04 07:08:44 51°15.955 2°53.381 11.2 284 9.1 102010 45
2011-04-04 07:08:49 51°15.971 2°53.367 9.3 25 9.1 102010 45
2011-04-04 07:08:54 51°15.986 2°53.354 9.8 285 9.1 102010 45
2011-04-04 07:09:00 51°16.005 2°53.338 10.5 24 9.1 102000 45
2011-04-04 07:09:04 51°16.017 2°53.326 11.5 283 9.1 102000 45
2011-04-04 07:09:09 51°16.031 2°53.313 11.9 19 9.1 102010 45
2011-04-04 07:09:14 51°16.047 2°53.299 10.9 280 9.1 102010 45
2011-04-04 07:09:19 51°16.062 2°53.285 10.3 24 9.1 102010 47
2011-04-04 07:09:24 51°16.077 2°53.271 9.3 279 9.1 102010 47
2011-04-04 07:09:29 51°16.093 2°53.258 9.6 24 9.1 102020 46
2011-04-04 07:09:34 51°16.108 2°53.244 9.4 280 9.1 102020 46
2011-04-04 07:09:39 51°16.124 2°53.232 11 19 9.1 102010 47
2011-04-04 07:09:44 51°16.139 2°53.219 11.6 283 9.1 102010 47
2011-04-04 07:09:49 51°16.155 2°53.205 12.1 28 9.1 102010 45
2011-04-04 07:09:54 51°16.17 2°53.192 10.9 281 9.1 102010 45
2011-04-04 07:09:59 51°16.186 2°53.178 10.8 26 9.1 102010 47
2011-04-04 07:10:04 51°16.201 2°53.164 11.6 279 9.1 102010 47
2011-04-04 07:10:09 51°16.217 2°53.151 10.1 26 9.1 102010 46
2011-04-04 07:10:14 51°16.232 2°53.137 12.7 285 9.1 102010 46
2011-04-04 07:10:19 51°16.248 2°53.124 9.1 24 9.1 102010 46
2011-04-04 07:10:24 51°16.263 2°53.111 10.3 281 9.1 102010 46
2011-04-04 07:10:29 51°16.279 2°53.098 10.9 23 9.1 102010 47
2011-04-04 07:10:34 51°16.295 2°53.086 10 282 9.1 102010 47
2011-04-04 07:10:39 51°16.31 2°53.073 11.2 25 9.1 102010 45
2011-04-04 07:10:44 51°16.326 2°53.061 11.7 282 9.1 102010 45
2011-04-04 07:10:49 51°16.342 2°53.049 11.3 21 9.1 102010 46
2011-04-04 07:10:54 51°16.357 2°53.036 11.3 279 9.1 102010 46
2011-04-04 07:10:59 51°16.373 2°53.023 10.7 26 9.1 102010 45
2011-04-04 07:11:04 51°16.389 2°53.011 10.1 282 9.1 102010 45
2011-04-04 07:11:09 51°16.404 2°52.998 10.5 22 9.1 102010 44
2011-04-04 07:11:14 51°16.42 2°52.985 11.5 281 9.1 102010 44
2011-04-04 07:11:19 51°16.435 2°52.972 11.4 25 9.1 102020 47
2011-04-04 07:11:24 51°16.451 2°52.96 9.8 279 9.1 102020 47
2011-04-04 07:11:29 51°16.467 2°52.948 11.5 26 9.1 102010 46
2011-04-04 07:11:34 51°16.483 2°52.937 9.7 279 9.1 102010 46
2011-04-04 07:11:40 51°16.502 2°52.922 10.5 24 9.1 102020 46
2011-04-04 07:11:44 51°16.514 2°52.913 11.4 282 9.1 102020 46
2011-04-04 07:11:48 51°16.527 2°52.904 10.6 20 9.1 102020 46
2011-04-04 07:11:54 51°16.546 2°52.89 9.6 284 9.1 102020 46
2011-04-04 07:11:59 51°16.562 2°52.878 9.8 24 9.1 102020 46
2011-04-04 07:12:04 51°16.578 2°52.867 9.6 284 9.1 102020 46
2011-04-04 07:12:09 51°16.593 2°52.856 9.4 25 9.1 102010 46
2011-04-04 07:12:14 51°16.609 2°52.844 10.4 279 9.1 102010 46
2011-04-04 07:12:19 51°16.625 2°52.832 11.1 23 9.1 102020 46
2011-04-04 07:12:24 51°16.641 2°52.821 9 281 9.1 102020 46
2011-04-04 07:12:28 51°16.653 2°52.811 10.4 27 9.1 102020 45
2011-04-04 07:12:34 51°16.672 2°52.797 11.1 283 9.1 102020 45
2011-04-04 07:12:39 51°16.687 2°52.785 9.7 22 9.1 102020 45
2011-04-04 07:12:44 51°16.703 2°52.773 9.4 278 9.1 102020 45
2011-04-04 07:12:49 51°16.719 2°52.762 10.1 235 9.1 102010 46
2011-04-04 07:12:54 51°16.734 2°52.75 10.1 282 9.1 102010 46
2011-04-04 07:13:00 51°16.753 2°52.737 9.9 24 9.1 102020 47
2011-04-04 07:13:04 51°16.765 2°52.729 10.7 280 9.1 102020 47
2011-04-04 07:13:09 51°16.781 2°52.719 11.4 22 9.1 102020 47
2011-04-04 07:13:14 51°16.797 2°52.71 9.2 286 9.1 102020 47
2011-04-04 07:13:20 51°16.816 2°52.7 9.2 26 9.1 102020 45
2011-04-04 07:13:24 51°16.828 2°52.693 9.9 279 9.1 102020 45
2011-04-04 07:13:28 51°16.841 2°52.687 10.3 21 9.1 102020 47
2011-04-04 07:13:34 51°16.861 2°52.68 9.7 281 9.1 102020 47
2011-04-04 07:13:39 51°16.877 2°52.674 11.2 27 9.1 102020 47
2011-04-04 07:13:44 51°16.894 2°52.67 10.1 281 9.1 102020 47
2011-04-04 07:13:49 51°16.91 2°52.664 8.6 21 9.1 102020 45
2011-04-04 07:13:54 51°16.926 2°52.659 9.1 281 9.1 102020 45
2011-04-04 07:14:00 51°16.946 2°52.651 8.8 20 9.1 102030 46
2011-04-04 07:14:04 51°16.959 2°52.646 9.7 283 9.1 102030 46
2011-04-04 07:14:08 51°16.972 2°52.641 9.2 26 9.1 102020 45
2011-04-04 07:14:14 51°16.992 2°52.634 9 281 9.1 102020 45
2011-04-04 07:14:19 51°17.009 2°52.627 8.6 23 9.1 102030 45
2011-04-04 07:14:24 51°17.025 2°52.623 8.5 285 9.1 102030 45
2011-04-04 07:14:29 51°17.042 2°52.619 9.2 20 9.1 102030 45
2011-04-04 07:14:34 51°17.059 2°52.616 9 286 9.1 102030 45
2011-04-04 07:14:39 51°17.075 2°52.615 7.6 26 9.1 102030 46
2011-04-04 07:14:44 51°17.092 2°52.614 9.6 287 9.1 102030 46
2011-04-04 07:14:48 51°17.105 2°52.613 8.1 24 9 102030 45
2011-04-04 07:14:54 51°17.125 2°52.612 8.1 281 9 102030 45
2011-04-04 07:14:59 51°17.142 2°52.611 6.3 27 9.1 102030 45
2011-04-04 07:15:04 51°17.158 2°52.61 8.2 282 9.1 102030 45
2011-04-04 07:15:09 51°17.175 2°52.609 7.5 21 9.1 102030 47
2011-04-04 07:15:14 51°17.192 2°52.607 8 280 9.1 102030 47
2011-04-04 07:15:20 51°17.212 2°52.604 7.3 22 9.1 102030 44
2011-04-04 07:15:24 51°17.225 2°52.602 9.1 286 9.1 102030 44
2011-04-04 07:15:28 51°17.239 2°52.6 9.7 20 9.1 102030 47
2011-04-04 07:15:34 51°17.259 2°52.596 8.3 278 9.1 102030 47
2011-04-04 07:15:39 51°17.275 2°52.592 7.6 20 9.1 102030 47
2011-04-04 07:15:44 51°17.292 2°52.589 8.4 286 9.1 102030 47
2011-04-04 07:15:49 51°17.309 2°52.586 8.6 20 9.1 102030 46
2011-04-04 07:15:54 51°17.326 2°52.583 8.8 279 9.1 102030 46
2011-04-04 07:16:00 51°17.346 2°52.58 8.6 22 9.1 102030 46
2011-04-04 07:16:04 51°17.359 2°52.578 7.5 280 9.1 102030 46
2011-04-04 07:16:09 51°17.376 2°52.575 8.8 21 9.1 102030 46
2011-04-04 07:16:14 51°17.393 2°52.573 7.8 280 9.1 102030 46
2011-04-04 07:16:19 51°17.41 2°52.571 8.2 24 9.1 102030 45
2011-04-04 07:16:24 51°17.427 2°52.569 9.3 285 9.1 102030 45
2011-04-04 07:16:29 51°17.444 2°52.568 8.5 21 9.1 102030 46
2011-04-04 07:16:34 51°17.46 2°52.567 8.5 281 9.1 102030 46
2011-04-04 07:16:39 51°17.477 2°52.566 8.3 20 9.1 102030 47
2011-04-04 07:16:44 51°17.494 2°52.565 7 280 9.1 102030 47
2011-04-04 07:16:49 51°17.511 2°52.562 7.7 27 9.1 102030 46
2011-04-04 07:16:54 51°17.527 2°52.561 8.6 284 9.1 102030 46
2011-04-04 07:16:59 51°17.544 2°52.558 7.6 26 9.1 102030 47
2011-04-04 07:17:04 51°17.561 2°52.555 7.6 278 9.1 102030 47
2011-04-04 07:17:08 51°17.574 2°52.553 7.5 23 9.1 102030 46
2011-04-04 07:17:14 51°17.594 2°52.549 7.5 284 9.1 102030 46
2011-04-04 07:17:19 51°17.611 2°52.546 7.8 20 9.1 102040 45
2011-04-04 07:17:24 51°17.628 2°52.543 8.2 285 9.1 102040 45
2011-04-04 07:17:29 51°17.644 2°52.54 7.2 19 9.1 102030 47
2011-04-04 07:17:34 51°17.661 2°52.539 7.8 281 9.1 102030 47
2011-04-04 07:17:40 51°17.681 2°52.536 9.1 21 9.1 102030 45
2011-04-04 07:17:44 51°17.694 2°52.536 8.4 280 9.1 102030 45
2011-04-04 07:17:48 51°17.708 2°52.535 8.2 22 9.1 102030 45
2011-04-04 07:17:55 51°17.731 2°52.538 8.2 282 9.1 102030 45
2011-04-04 07:17:59 51°17.744 2°52.54 6.9 245 9.1 102030 47
2011-04-04 07:18:04 51°17.76 2°52.545 6.7 282 9.1 102030 47
2011-04-04 07:18:09 51°17.776 2°52.55 7.2 248 9.1 102030 45
2011-04-04 07:18:14 51°17.792 2°52.556 7.7 288 9.1 102030 45
2011-04-04 07:18:20 51°17.811 2°52.564 5.8 246 9.1 102040 47
2011-04-04 07:18:24 51°17.823 2°52.571 5.6 283 9.1 102040 47
2011-04-04 07:18:28 51°17.836 2°52.577 6.1 20 9.1 102040 45
2011-04-04 07:18:34 51°17.855 2°52.587 4.9 284 9.1 102040 45
2011-04-04 07:18:39 51°17.87 2°52.596 5.6 249 9.1 102040 45
2011-04-04 07:18:44 51°17.886 2°52.605 4.3 284 9.1 102040 45
2011-04-04 07:18:49 51°17.901 2°52.613 5.7 249 9.1 102050 45
2011-04-04 07:18:54 51°17.916 2°52.622 5.3 284 9.1 102050 45
2011-04-04 07:18:59 51°17.932 2°52.63 4.8 243 9.1 102040 45
2011-04-04 07:19:04 51°17.947 2°52.638 5.8 281 9.1 102040 45
2011-04-04 07:19:08 51°17.96 2°52.645 5.1 24 9.1 102050 43
2011-04-04 07:19:14 51°17.979 2°52.654 5.3 285 9.1 102050 43
2011-04-04 07:19:19 51°17.994 2°52.662 7.3 248 9.1 102050 45
2011-04-04 07:19:24 51°18.01 2°52.669 6.6 279 9.1 102050 45
2011-04-04 07:19:29 51°18.026 2°52.676 5.8 248 9.1 102050 45
2011-04-04 07:19:34 51°18.042 2°52.684 5.3 279 9.1 102050 45
2011-04-04 07:19:40 51°18.06 2°52.696 4.9 247 9.1 102040 45
2011-04-04 07:19:44 51°18.072 2°52.704 5.5 280 9.1 102040 45
2011-04-04 07:19:48 51°18.084 2°52.713 6.4 254 9.1 102040 46
2011-04-04 07:19:54 51°18.101 2°52.727 5.4 285 9.1 102040 46
2011-04-04 07:19:59 51°18.115 2°52.74 5.2 259 9.2 102050 47
2011-04-04 07:20:04 51°18.129 2°52.754 4.8 278 9.2 102050 47
2011-04-04 07:20:09 51°18.143 2°52.767 5.5 251 9.2 102050 48
2011-04-04 07:20:14 51°18.157 2°52.781 4.9 285 9.2 102050 48
2011-04-04 07:20:20 51°18.174 2°52.797 4.2 251 9.2 102050 45
2011-04-04 07:20:24 51°18.185 2°52.808 4.8 281 9.2 102050 45
2011-04-04 07:20:28 51°18.197 2°52.817 5.2 250 9.2 102050 48
2011-04-04 07:20:34 51°18.214 2°52.832 4.6 284 9.2 102050 48
2011-04-04 07:20:39 51°18.228 2°52.844 4.3 253 9.2 102050 45
2011-04-04 07:20:44 51°18.243 2°52.856 5.2 285 9.2 102050 45
2011-04-04 07:20:49 51°18.258 2°52.868 5.2 252 9.2 102050 45
2011-04-04 07:20:54 51°18.273 2°52.878 4.6 283 9.2 102050 45
2011-04-04 07:20:59 51°18.288 2°52.889 4.9 247 9.2 102050 47
2011-04-04 07:21:04 51°18.303 2°52.898 5 284 9.2 102050 47
2011-04-04 07:21:08 51°18.315 2°52.906 5 245 9.2 102050 45
2011-04-04 07:21:14 51°18.333 2°52.917 5.7 283 9.2 102050 45
2011-04-04 07:21:19 51°18.349 2°52.927 6.1 254 9.2 102050 47
2011-04-04 07:21:24 51°18.364 2°52.936 6.6 280 9.2 102050 47
2011-04-04 07:21:29 51°18.38 2°52.945 5.1 22 9.2 102050 45
2011-04-04 07:21:34 51°18.395 2°52.955 6.1 286 9.2 102050 45
2011-04-04 07:21:39 51°18.41 2°52.963 4.3 249 9.2 102050 47
2011-04-04 07:21:44 51°18.426 2°52.972 5.1 283 9.2 102050 47
2011-04-04 07:21:48 51°18.438 2°52.978 4.4 246 9.2 102050 44
2011-04-04 07:21:54 51°18.457 2°52.989 5.6 280 9.2 102050 44
2011-04-04 07:21:59 51°18.472 2°52.998 5.8 248 9.2 102050 45
2011-04-04 07:22:04 51°18.487 2°53.008 5.3 286 9.2 102050 45
2011-04-04 07:22:09 51°18.502 2°53.018 4.9 250 9.2 102050 46
2011-04-04 07:22:14 51°18.518 2°53.027 5 284 9.2 102050 46
2011-04-04 07:22:20 51°18.536 2°53.039 5.2 20 9.2 102050 45
2011-04-04 07:22:24 51°18.548 2°53.046 6.2 284 9.2 102050 45
2011-04-04 07:22:29 51°18.564 2°53.054 5 22 9.2 102060 45
2011-04-04 07:22:34 51°18.579 2°53.062 5.5 278 9.2 102060 45
2011-04-04 07:22:40 51°18.597 2°53.072 5.8 250 9.2 102060 47
2011-04-04 07:22:44 51°18.61 2°53.079 5.4 279 9.2 102060 47
2011-04-04 07:22:48 51°18.622 2°53.085 2.5 20 9.2 102060 47
2011-04-04 07:22:54 51°18.64 2°53.096 5.2 283 9.2 102060 47
2011-04-04 07:22:59 51°18.656 2°53.104 4.2 19 9.2 102060 45
2011-04-04 07:23:04 51°18.672 2°53.112 4.8 279 9.2 102060 45
2011-04-04 07:23:09 51°18.687 2°53.12 5.4 252 9.2 102060 47
2011-04-04 07:23:14 51°18.703 2°53.127 4.9 285 9.2 102060 47
2011-04-04 07:23:19 51°18.719 2°53.135 5.2 247 9.2 102050 47
2011-04-04 07:23:24 51°18.734 2°53.143 5.5 285 9.2 102050 47
2011-04-04 07:23:28 51°18.747 2°53.149 5.8 25 9.2 102060 47
2011-04-04 07:23:34 51°18.766 2°53.158 6.7 280 9.2 102060 47
2011-04-04 07:23:39 51°18.782 2°53.165 5.5 248 9.2 102060 46
2011-04-04 07:23:44 51°18.797 2°53.173 6.2 285 9.2 102060 46
2011-04-04 07:23:49 51°18.813 2°53.18 5.9 26 9.2 102060 46
2011-04-04 07:23:54 51°18.829 2°53.188 6 281 9.2 102060 46
2011-04-04 07:24:00 51°18.847 2°53.198 5.5 248 9.2 102050 45
2011-04-04 07:24:04 51°18.86 2°53.204 5.5 284 9.2 102050 45
2011-04-04 07:24:08 51°18.873 2°53.21 6.4 22 9.2 102060 47
2011-04-04 07:24:14 51°18.891 2°53.219 5.1 282 9.2 102060 47
2011-04-04 07:24:19 51°18.907 2°53.226 5.7 22 9.2 102060 45
2011-04-04 07:24:24 51°18.923 2°53.234 5.9 280 9.2 102060 45
2011-04-04 07:24:29 51°18.938 2°53.241 5.1 250 9.2 102050 44
2011-04-04 07:24:34 51°18.954 2°53.248 5.8 282 9.2 102050 44
2011-04-04 07:24:40 51°18.972 2°53.256 5.7 248 9.2 102060 47
2011-04-04 07:24:44 51°18.985 2°53.263 5.5 285 9.2 102060 47
2011-04-04 07:24:48 51°18.997 2°53.269 3.6 25 9.2 102060 45
2011-04-04 07:24:54 51°19.016 2°53.278 5.4 279 9.2 102060 45
2011-04-04 07:24:59 51°19.031 2°53.286 5.2 19 9.2 102060 47
2011-04-04 07:25:04 51°19.046 2°53.294 5.7 282 9.2 102060 47
2011-04-04 07:25:09 51°19.062 2°53.301 5.3 25 9.2 102060 45
2011-04-04 07:25:14 51°19.077 2°53.309 5.7 284 9.2 102060 45
2011-04-04 07:25:19 51°19.093 2°53.316 4.8 19 9.2 102060 45
2011-04-04 07:25:24 51°19.109 2°53.324 4.5 285 9.2 102060 45
2011-04-04 07:25:28 51°19.121 2°53.328 5.7 247 9.2 102060 47
2011-04-04 07:25:34 51°19.14 2°53.337 6.1 279 9.2 102060 47
2011-04-04 07:25:39 51°19.156 2°53.343 6.1 250 9.2 102060 45
2011-04-04 07:25:44 51°19.171 2°53.35 6.4 284 9.2 102060 45
2011-04-04 07:25:49 51°19.187 2°53.357 4.9 25 9.2 102060 45
2011-04-04 07:25:54 51°19.203 2°53.364 4.6 280 9.2 102060 45
2011-04-04 07:25:59 51°19.218 2°53.37 5.4 248 9.2 102060 44
2011-04-04 07:26:04 51°19.234 2°53.377 5.6 281 9.2 102060 44
2011-04-04 07:26:08 51°19.246 2°53.384 4.7 250 9.2 102060 46
2011-04-04 07:26:14 51°19.265 2°53.393 6.3 280 9.2 102060 46
2011-04-04 07:26:19 51°19.28 2°53.401 4.6 21 9.2 102060 47
2011-04-04 07:26:24 51°19.296 2°53.408 4.3 283 9.2 102060 47
2011-04-04 07:26:29 51°19.311 2°53.415 5.7 248 9.2 102060 45
2011-04-04 07:26:34 51°19.327 2°53.423 5 278 9.2 102060 45
2011-04-04 07:26:40 51°19.345 2°53.431 6 248 9.2 102060 47
2011-04-04 07:26:44 51°19.358 2°53.436 5.5 280 9.2 102060 47
2011-04-04 07:26:48 51°19.371 2°53.442 5.1 21 9.2 102060 45
2011-04-04 07:26:54 51°19.389 2°53.449 5.7 285 9.2 102060 45
2011-04-04 07:26:59 51°19.405 2°53.455 6.2 27 9.2 102060 47
2011-04-04 07:27:04 51°19.421 2°53.461 6.4 284 9.2 102060 47
2011-04-04 07:27:09 51°19.437 2°53.468 6.8 249 9.2 102060 45
2011-04-04 07:27:14 51°19.452 2°53.476 5.6 281 9.2 102060 45
2011-04-04 07:27:19 51°19.468 2°53.482 4.6 246 9.2 102060 47
2011-04-04 07:27:24 51°19.483 2°53.49 6.1 286 9.2 102060 47
2011-04-04 07:27:29 51°19.499 2°53.497 5.6 248 9.2 102060 45
2011-04-04 07:27:34 51°19.515 2°53.504 5.6 286 9.2 102060 45
2011-04-04 07:27:39 51°19.53 2°53.511 4.5 250 9.2 102060 45
2011-04-04 07:27:44 51°19.546 2°53.518 6 286 9.2 102060 45
2011-04-04 07:27:49 51°19.561 2°53.525 6.2 250 9.2 102060 45
2011-04-04 07:27:54 51°19.577 2°53.533 6 285 9.2 102060 45
2011-04-04 07:27:59 51°19.592 2°53.54 5.4 252 9.2 102060 47
2011-04-04 07:28:04 51°19.608 2°53.547 6.3 281 9.2 102060 47
2011-04-04 07:28:09 51°19.623 2°53.554 6.1 21 9.2 102060 45
2011-04-04 07:28:14 51°19.639 2°53.561 3.4 283 9.2 102060 45
2011-04-04 07:28:19 51°19.655 2°53.567 5.9 250 9.2 102060 47
2011-04-04 07:28:24 51°19.67 2°53.573 6.8 280 9.2 102060 47
2011-04-04 07:28:28 51°19.683 2°53.578 5.2 248 9.2 102060 45
2011-04-04 07:28:34 51°19.701 2°53.586 5.3 285 9.2 102060 45
2011-04-04 07:28:39 51°19.717 2°53.593 6 20 9.2 102060 45
2011-04-04 07:28:44 51°19.732 2°53.601 5.1 282 9.2 102060 45
2011-04-04 07:28:49 51°19.747 2°53.608 4.1 247 9.2 102060 45
2011-04-04 07:28:54 51°19.763 2°53.616 5.5 278 9.2 102060 45
2011-04-04 07:29:00 51°19.781 2°53.625 5.4 22 9.2 102060 45
2011-04-04 07:29:04 51°19.794 2°53.631 5.9 279 9.2 102060 45
2011-04-04 07:29:08 51°19.806 2°53.637 5.6 251 9.2 102070 47
2011-04-04 07:29:14 51°19.825 2°53.645 4.8 278 9.2 102070 47
2011-04-04 07:29:19 51°19.84 2°53.653 6.3 245 9.2 102060 45
2011-04-04 07:29:24 51°19.856 2°53.66 5.8 284 9.2 102060 45
2011-04-04 07:29:29 51°19.871 2°53.668 5.8 251 9.2 102060 47
2011-04-04 07:29:34 51°19.887 2°53.675 4.6 279 9.2 102060 47
2011-04-04 07:29:39 51°19.902 2°53.683 6.1 21 9.2 102060 45
2011-04-04 07:29:44 51°19.918 2°53.69 6.4 283 9.2 102060 45
2011-04-04 07:29:48 51°19.93 2°53.696 6.1 252 9.2 102060 46
2011-04-04 07:29:54 51°19.949 2°53.704 5.5 285 9.2 102060 46
2011-04-04 07:29:59 51°19.964 2°53.713 4.6 248 9.2 102070 45
2011-04-04 07:30:04 51°19.98 2°53.72 5.5 284 9.2 102070 45
2011-04-04 07:30:09 51°19.995 2°53.729 5.3 21 9.2 102060 45
2011-04-04 07:30:14 51°20.011 2°53.736 3.9 284 9.2 102060 45
2011-04-04 07:30:19 51°20.026 2°53.744 6.4 251 9.2 102060 47
2011-04-04 07:30:24 51°20.042 2°53.752 5.5 285 9.2 102060 47
2011-04-04 07:30:28 51°20.054 2°53.758 5.8 248 9.2 102070 48
2011-04-04 07:30:34 51°20.073 2°53.767 5.5 279 9.2 102070 48
2011-04-04 07:30:39 51°20.089 2°53.774 5.8 23 9.2 102070 45
2011-04-04 07:30:44 51°20.104 2°53.781 5.5 285 9.2 102070 45
2011-04-04 07:30:49 51°20.12 2°53.788 6.3 19 9.2 102070 45
2011-04-04 07:30:54 51°20.136 2°53.796 6 284 9.2 102070 45
2011-04-04 07:31:00 51°20.155 2°53.803 5 244 9.3 102060 45
2011-04-04 07:31:04 51°20.167 2°53.809 5.4 284 9.3 102060 45
2011-04-04 07:31:08 51°20.18 2°53.814 5.3 248 9.2 102070 45
2011-04-04 07:31:14 51°20.199 2°53.821 6.3 278 9.2 102070 45
2011-04-04 07:31:19 51°20.215 2°53.829 4.9 251 9.2 102070 46
2011-04-04 07:31:24 51°20.23 2°53.835 4.5 278 9.2 102070 46
2011-04-04 07:31:29 51°20.246 2°53.843 6 250 9.3 102060 47
2011-04-04 07:31:34 51°20.262 2°53.85 5.1 285 9.3 102060 47
2011-04-04 07:31:40 51°20.28 2°53.859 5.6 249 9.3 102070 45
2011-04-04 07:31:44 51°20.293 2°53.864 5.6 283 9.3 102070 45
2011-04-04 07:31:48 51°20.306 2°53.87 5.2 20 9.2 102070 47
2011-04-04 07:31:54 51°20.325 2°53.877 6.7 279 9.2 102070 47
2011-04-04 07:31:59 51°20.34 2°53.884 7.1 246 9.2 102070 45
2011-04-04 07:32:04 51°20.356 2°53.891 5.6 282 9.2 102070 45
2011-04-04 07:32:09 51°20.372 2°53.897 6.6 248 9.2 102070 45
2011-04-04 07:32:14 51°20.387 2°53.904 5.2 286 9.2 102070 45
2011-04-04 07:32:19 51°20.403 2°53.911 3 24 9.2 102070 47
2011-04-04 07:32:24 51°20.418 2°53.918 4.8 279 9.2 102070 47
2011-04-04 07:32:29 51°20.434 2°53.924 5 248 9.2 102070 45
2011-04-04 07:32:34 51°20.45 2°53.932 5.2 280 9.2 102070 45
2011-04-04 07:32:39 51°20.465 2°53.939 5.9 254 9.2 102070 48
2011-04-04 07:32:44 51°20.481 2°53.946 5.9 281 9.2 102070 48
2011-04-04 07:32:49 51°20.496 2°53.953 5.1 251 9.2 102070 45
2011-04-04 07:32:54 51°20.512 2°53.96 6.8 279 9.2 102070 45
2011-04-04 07:32:59 51°20.527 2°53.968 5.3 20 9.2 102070 47
2011-04-04 07:33:04 51°20.543 2°53.975 4.5 284 9.2 102070 47
2011-04-04 07:33:09 51°20.559 2°53.982 5.8 248 9.2 102070 45
2011-04-04 07:33:14 51°20.575 2°53.988 5.3 285 9.2 102070 45
2011-04-04 07:33:20 51°20.594 2°53.995 6.1 24 9.2 102070 45
2011-04-04 07:33:24 51°20.607 2°54 7.3 282 9.2 102070 45
2011-04-04 07:33:28 51°20.62 2°54.005 5.4 23 9.2 102070 47
2011-04-04 07:33:35 51°20.642 2°54.014 6 281 9.2 102070 47
2011-04-04 07:33:39 51°20.655 2°54.019 5.1 22 9.2 102070 47
2011-04-04 07:33:44 51°20.67 2°54.026 6.1 285 9.2 102070 47
2011-04-04 07:33:49 51°20.686 2°54.033 5.3 23 9.2 102070 46
2011-04-04 07:33:54 51°20.702 2°54.04 6.3 281 9.2 102070 46
2011-04-04 07:33:59 51°20.718 2°54.047 5.5 249 9.2 102070 45
2011-04-04 07:34:04 51°20.733 2°54.054 6.7 284 9.2 102070 45
2011-04-04 07:34:08 51°20.746 2°54.059 7.2 248 9.2 102070 47
2011-04-04 07:34:14 51°20.765 2°54.068 7.5 285 9.2 102070 47
2011-04-04 07:34:19 51°20.781 2°54.075 5.8 249 9.2 102060 47
2011-04-04 07:34:24 51°20.796 2°54.083 7 286 9.2 102060 47
2011-04-04 07:34:29 51°20.812 2°54.09 5.5 25 9.2 102070 46
2011-04-04 07:34:34 51°20.828 2°54.097 5.4 284 9.2 102070 46
2011-04-04 07:34:39 51°20.844 2°54.105 6.6 21 9.2 102070 46
2011-04-04 07:34:44 51°20.859 2°54.112 6 279 9.2 102070 46
2011-04-04 07:34:48 51°20.872 2°54.118 6 245 9.2 102070 47
2011-04-04 07:34:54 51°20.891 2°54.127 5.7 284 9.2 102070 47
2011-04-04 07:34:59 51°20.907 2°54.134 6.7 20 9.2 102070 45
2011-04-04 07:35:04 51°20.922 2°54.141 4.9 280 9.2 102070 45
2011-04-04 07:35:09 51°20.938 2°54.148 6 18 9.2 102070 44
2011-04-04 07:35:14 51°20.954 2°54.155 7.6 285 9.2 102070 44
2011-04-04 07:35:20 51°20.973 2°54.163 7 249 9.2 102070 47
2011-04-04 07:35:24 51°20.985 2°54.169 5.3 279 9.2 102070 47
2011-04-04 07:35:28 51°20.998 2°54.174 3.8 20 9.2 102070 45
2011-04-04 07:35:34 51°21.017 2°54.183 4 285 9.2 102070 45
2011-04-04 07:35:39 51°21.033 2°54.189 4.1 22 9.2 102060 47
2011-04-04 07:35:44 51°21.048 2°54.197 4.6 279 9.2 102060 47
2011-04-04 07:35:49 51°21.064 2°54.204 5.4 247 9.2 102070 47
2011-04-04 07:35:54 51°21.08 2°54.212 4.2 286 9.2 102070 47
2011-04-04 07:36:00 51°21.099 2°54.219 6.3 23 9.2 102070 46
2011-04-04 07:36:04 51°21.112 2°54.225 6.1 281 9.2 102070 46
2011-04-04 07:36:08 51°21.124 2°54.23 5.9 22 9.2 102070 45
2011-04-04 07:36:14 51°21.144 2°54.239 6.6 286 9.2 102070 45
2011-04-04 07:36:19 51°21.16 2°54.245 6.7 249 9.1 102070 47
2011-04-04 07:36:24 51°21.176 2°54.251 7.5 284 9.1 102070 47
2011-04-04 07:36:29 51°21.192 2°54.257 5.8 247 9.1 102080 45
2011-04-04 07:36:34 51°21.208 2°54.263 5.4 285 9.1 102080 45
2011-04-04 07:36:39 51°21.224 2°54.269 6.3 250 9.1 102070 46
2011-04-04 07:36:44 51°21.24 2°54.276 6.6 284 9.1 102070 46
2011-04-04 07:36:48 51°21.253 2°54.281 6.1 21 9.1 102070 46
2011-04-04 07:36:54 51°21.272 2°54.29 6 283 9.1 102070 46
2011-04-04 07:36:59 51°21.288 2°54.297 5.1 26 9.1 102080 46
2011-04-04 07:37:04 51°21.303 2°54.305 5.9 280 9.1 102080 46
2011-04-04 07:37:09 51°21.319 2°54.311 5.6 246 9.1 102080 44
2011-04-04 07:37:14 51°21.335 2°54.318 6.1 279 9.1 102080 44
2011-04-04 07:37:19 51°21.351 2°54.324 0.4 22 9.1 102080 47
2011-04-04 07:37:24 51°21.367 2°54.332 0.2 282 9.1 102080 47
2011-04-04 07:37:29 51°21.383 2°54.338 0.1 23 9.1 102070 45
2011-04-04 07:37:34 51°21.399 2°54.345 0.3 282 9.1 102070 45
2011-04-04 07:37:40 51°21.418 2°54.353 0.1 247 9.1 102070 46
2011-04-04 07:37:44 51°21.431 2°54.357 0.1 282 9.1 102070 46
2011-04-04 07:37:49 51°21.447 2°54.364 0.1 24 9.1 102070 44
2011-04-04 07:37:54 51°21.462 2°54.37 -999 282 9.1 102070 44
2011-04-04 07:38:00 51°21.481 2°54.378 0.1 18 9.1 102080 46
2011-04-04 07:38:04 51°21.494 2°54.383 0.1 282 9.1 102080 46
2011-04-04 07:38:09 51°21.51 2°54.39 0.1 23 9.1 102080 46
2011-04-04 07:38:14 51°21.526 2°54.397 -999 277 9.1 102080 46
2011-04-04 07:38:20 51°21.545 2°54.404 0.1 20 9.1 102080 46
2011-04-04 07:38:24 51°21.558 2°54.41 5.8 279 9.1 102080 46
2011-04-04 07:38:29 51°21.574 2°54.416 5.5 19 9.1 102080 46
2011-04-04 07:38:34 51°21.59 2°54.423 7.5 284 9.1 102080 46
2011-04-04 07:38:39 51°21.606 2°54.43 5.6 18 9.1 102070 46
2011-04-04 07:38:44 51°21.622 2°54.437 7.2 285 9.1 102070 46
2011-04-04 07:38:49 51°21.638 2°54.443 6.4 248 9.1 102070 47
2011-04-04 07:38:54 51°21.654 2°54.45 5.8 284 9.1 102070 47
2011-04-04 07:38:59 51°21.67 2°54.457 6.6 249 9.1 102080 47
2011-04-04 07:39:04 51°21.686 2°54.464 6.1 279 9.1 102080 47
2011-04-04 07:39:08 51°21.699 2°54.469 7.3 19 9.1 102080 44
2011-04-04 07:39:14 51°21.718 2°54.477 5.4 281 9.1 102080 44
2011-04-04 07:39:19 51°21.734 2°54.483 6.3 21 9.1 102080 47
2011-04-04 07:39:24 51°21.75 2°54.489 5.4 286 9.1 102080 47
2011-04-04 07:39:29 51°21.766 2°54.495 6.2 249 9.1 102080 46
2011-04-04 07:39:34 51°21.782 2°54.501 6.9 286 9.1 102080 46
2011-04-04 07:39:40 51°21.801 2°54.509 6.5 248 9.1 102080 47
2011-04-04 07:39:44 51°21.814 2°54.513 5.7 282 9.1 102080 47
2011-04-04 07:39:48 51°21.827 2°54.519 6.5 25 9.1 102070 47
2011-04-04 07:39:54 51°21.846 2°54.527 5.4 280 9.1 102070 47
2011-04-04 07:39:59 51°21.862 2°54.533 6.8 21 9.1 102080 45
2011-04-04 07:40:04 51°21.878 2°54.54 6.6 282 9.1 102080 45
2011-04-04 07:40:09 51°21.894 2°54.546 7.1 249 9.1 102080 45
2011-04-04 07:40:14 51°21.909 2°54.553 5.9 284 9.1 102080 45
2011-04-04 07:40:20 51°21.929 2°54.561 6.5 247 9.1 102080 45
2011-04-04 07:40:24 51°21.941 2°54.567 5.3 279 9.1 102080 45
2011-04-04 07:40:28 51°21.954 2°54.573 6.1 245 9.1 102080 44
2011-04-04 07:40:34 51°21.973 2°54.58 5.4 284 9.1 102080 44
2011-04-04 07:40:39 51°21.989 2°54.587 4.7 247 9.1 102080 46
2011-04-04 07:40:44 51°22.005 2°54.594 4.7 279 9.1 102080 46
2011-04-04 07:40:49 51°22.02 2°54.601 6.6 246 9.1 102070 44
2011-04-04 07:40:54 51°22.037 2°54.607 7.2 279 9.1 102070 44
2011-04-04 07:40:59 51°22.053 2°54.614 6.5 22 9 102080 45
2011-04-04 07:41:04 51°22.069 2°54.62 6.6 280 9 102080 45
2011-04-04 07:41:08 51°22.082 2°54.625 6.3 23 9.1 102080 47
2011-04-04 07:41:14 51°22.101 2°54.632 6.6 285 9.1 102080 47
2011-04-04 07:41:19 51°22.117 2°54.639 6.3 22 9 102080 47
2011-04-04 07:41:24 51°22.134 2°54.644 6.6 279 9 102080 47
2011-04-04 07:41:29 51°22.15 2°54.65 6.4 22 9.1 102080 45
2011-04-04 07:41:34 51°22.166 2°54.657 5.7 286 9.1 102080 45
2011-04-04 07:41:39 51°22.182 2°54.662 5.9 21 9.1 102080 47
2011-04-04 07:41:44 51°22.198 2°54.669 3.9 280 9.1 102080 47
2011-04-04 07:41:48 51°22.211 2°54.674 5.2 247 9.1 102080 47
2011-04-04 07:41:54 51°22.23 2°54.682 3.7 281 9.1 102080 47
2011-04-04 07:41:59 51°22.247 2°54.689 4.4 24 9.1 102080 46
2011-04-04 07:42:04 51°22.263 2°54.696 0.3 282 9.1 102080 46
2011-04-04 07:42:09 51°22.278 2°54.702 0.1 23 9 102080 46
2011-04-04 07:42:14 51°22.295 2°54.71 0.1 282 9 102080 46
2011-04-04 07:42:20 51°22.314 2°54.718 -999 23 9.1 102080 46
2011-04-04 07:42:24 51°22.327 2°54.724 -999 282 9.1 102080 46
2011-04-04 07:42:29 51°22.343 2°54.731 -999 245 9.1 102080 46
2011-04-04 07:42:34 51°22.359 2°54.737 -999 282 9.1 102080 46
2011-04-04 07:42:40 51°22.378 2°54.746 -999 24 9.1 102080 46
2011-04-04 07:42:44 51°22.391 2°54.75 0.1 282 9.1 102080 46
2011-04-04 07:42:49 51°22.407 2°54.758 0.1 24 9 102080 46
2011-04-04 07:42:54 51°22.424 2°54.764 0.1 282 9 102080 46
2011-04-04 07:42:59 51°22.44 2°54.771 0.1 20 9 102070 46
2011-04-04 07:43:04 51°22.456 2°54.777 0.1 282 9 102070 46
2011-04-04 07:43:09 51°22.473 2°54.784 0.1 23 9 102080 45
2011-04-04 07:43:14 51°22.489 2°54.789 -999 282 9 102080 45
2011-04-04 07:43:19 51°22.505 2°54.796 -999 23 9 102080 46
2011-04-04 07:43:24 51°22.522 2°54.801 -999 282 9 102080 46
2011-04-04 07:43:29 51°22.538 2°54.807 -999 23 9 102080 46
2011-04-04 07:43:34 51°22.554 2°54.813 -999 278 9 102080 46
2011-04-04 07:43:39 51°22.57 2°54.819 -999 25 9 102080 46
2011-04-04 07:43:44 51°22.586 2°54.825 -999 282 9 102080 46
2011-04-04 07:43:49 51°22.602 2°54.832 0.1 24 9 102080 46
2011-04-04 07:43:54 51°22.618 2°54.839 0.1 282 9 102080 46
2011-04-04 07:43:59 51°22.634 2°54.845 0.1 24 9 102080 46
2011-04-04 07:44:04 51°22.65 2°54.852 -999 282 9 102080 46
2011-04-04 07:44:08 51°22.663 2°54.856 0.1 18 9 102080 46
2011-04-04 07:44:14 51°22.682 2°54.863 0.1 282 9 102080 46
2011-04-04 07:44:19 51°22.698 2°54.869 0.1 23 9 102080 46
2011-04-04 07:44:24 51°22.714 2°54.875 -999 282 9 102080 46
2011-04-04 07:44:29 51°22.731 2°54.88 0.1 20 9 102080 46
2011-04-04 07:44:34 51°22.747 2°54.887 0.1 281 9 102080 46
2011-04-04 07:44:40 51°22.766 2°54.894 0.1 24 9 102080 46
2011-04-04 07:44:44 51°22.779 2°54.9 -999 282 9 102080 46
2011-04-04 07:44:48 51°22.791 2°54.905 -999 24 9 102080 46
2011-04-04 07:44:54 51°22.811 2°54.913 -999 282 9 102080 46
2011-04-04 07:44:59 51°22.827 2°54.919 -999 248 9 102080 46
2011-04-04 07:45:04 51°22.843 2°54.926 -999 282 9 102080 46
2011-04-04 07:45:09 51°22.859 2°54.932 0.1 20 9 102080 46
2011-04-04 07:45:14 51°22.875 2°54.939 0.1 -999 9 102080 46
2011-04-04 07:45:19 51°22.891 2°54.946 0.1 248 9 102080 46
2011-04-04 07:45:24 51°22.907 2°54.951 -999 282 9 102080 46
2011-04-04 07:45:28 51°22.919 2°54.957 -999 23 9 102080 46
2011-04-04 07:45:34 51°22.938 2°54.963 -999 282 9 102080 46
2011-04-04 07:45:39 51°22.954 2°54.971 -999 248 9 102080 46
2011-04-04 07:45:44 51°22.97 2°54.977 -999 282 9 102080 46
2011-04-04 07:45:49 51°22.986 2°54.984 -999 23 9 102080 45
2011-04-04 07:45:54 51°23.002 2°54.99 -999 282 9 102080 45
2011-04-04 07:45:59 51°23.018 2°54.997 -999 23 9 102080 46
2011-04-04 07:46:04 51°23.034 2°55.002 -999 282 9 102080 46
2011-04-04 07:46:08 51°23.046 2°55.007 -999 23 9 102080 46
2011-04-04 07:46:14 51°23.066 2°55.014 -999 -999 9 102080 46
2011-04-04 07:46:19 51°23.082 2°55.021 -999 23 9 102080 46
2011-04-04 07:46:24 51°23.097 2°55.028 -999 282 9 102080 46
2011-04-04 07:46:29 51°23.113 2°55.034 -999 23 9 102080 46
2011-04-04 07:46:34 51°23.129 2°55.041 -999 282 9 102080 46
2011-04-04 07:46:40 51°23.148 2°55.05 -999 23 9 102080 46
2011-04-04 07:46:44 51°23.16 2°55.055 -999 282 9 102080 46
2011-04-04 07:46:48 51°23.173 2°55.06 -999 23 9 102080 46
2011-04-04 07:46:54 51°23.192 2°55.069 -999 282 9 102080 46
2011-04-04 07:46:59 51°23.207 2°55.076 -999 23 9 102080 46